Date,TemperatureHighF,TemperatureAvgF,TemperatureLowF,DewpointHighF,DewpointAvgF,DewpointLowF,HumidityHigh,HumidityAvg,HumidityLow,PressureMaxIn,PressureMinIn,WindSpeedMaxMPH,WindSpeedAvgMPH,GustSpeedMaxMPH,PrecipitationSumIn
2013-1-13,25.2,19.3,13.8,13.2,10.0,6.9,75,67,58,30.33,30.18,2,0,3,0.00
2013-1-14,26.4,18.5,11.2,13.4,9.1,6.2,81,67,49,30.48,30.34,3,0,8,0.00
2013-1-15,29.7,20.4,12.9,16.8,11.6,7.1,79,69,49,30.38,30.15,3,0,6,0.00
2013-1-16,41.3,28.0,15.6,28.9,19.2,10.2,80,70,53,30.16,30.00,6,2,9,0.05
2013-1-17,44.9,35.5,27.3,29.9,27.6,25.4,93,74,50,30.42,30.13,4,1,8,0.03
2013-1-18,54.4,41.2,30.1,35.3,30.5,25.1,83,67,47,30.37,29.99,8,4,14,0.01
2013-1-19,60.2,46.7,38.7,36.3,32.6,28.7,78,60,35,30.16,29.92,9,3,14,0.00
2013-1-20,38.2,28.3,19.6,29.7,15.4,10.8,77,59,37,30.34,30.16,4,1,9,0.00
2013-1-21,24.4,17.9,12.0,12.8,7.8,0.8,85,66,41,30.40,30.33,2,0,3,0.00
2013-1-22,27.5,18.9,11.4,10.8,7.1,3.5,75,60,47,30.40,30.25,3,1,8,0.00
2013-1-23,48.2,28.8,13.7,26.2,17.0,7.8,78,63,39,30.37,30.14,3,1,6,0.00
2013-1-24,26.0,20.1,9.5,13.4,8.6,2.3,74,61,49,30.47,30.14,6,3,12,0.00
2013-1-25,46.6,33.2,20.2,23.4,18.0,10.0,66,54,38,30.20,30.10,4,1,8,0.00
2013-1-26,54.3,40.0,30.8,29.1,25.7,22.0,74,57,36,30.25,30.05,6,2,8,0.00
2013-1-27,61.1,49.8,37.8,55.2,44.8,26.9,92,83,52,30.05,29.69,8,4,16,0.11
2013-1-28,73.2,64.6,57.1,61.4,58.1,54.5,92,80,62,29.79,29.59,8,4,13,0.00
2013-1-29,66.9,51.9,35.8,61.4,49.3,34.8,97,91,79,29.59,29.35,7,2,12,1.31
2013-1-30,36.2,27.8,22.8,35.4,24.5,16.6,97,87,76,29.93,29.37,4,2,9,0.02
2013-1-31,26.8,18.9,7.6,19.9,12.3,0.8,89,75,59,30.45,29.90,5,1,8,0.00
2013-2-1,26.1,17.0,4.1,16.8,8.7,-0.1,87,70,57,30.46,30.15,4,1,7,0.00
2013-2-2,47.1,35.2,24.2,34.1,26.3,16.5,78,70,58,30.17,30.01,5,2,8,0.01
2013-2-3,46.1,39.1,31.4,32.6,24.4,15.8,78,57,35,30.22,29.81,4,2,9,0.00
2013-2-4,50.7,39.0,23.6,34.9,28.9,21.3,92,68,53,29.93,29.71,4,1,5,0.00
2013-2-5,57.9,38.2,22.4,35.6,28.0,20.4,93,70,40,30.06,29.85,6,1,10,0.00
2013-2-6,60.5,46.2,31.2,40.6,34.0,26.8,86,64,44,30.06,29.84,9,4,15,0.00
2013-2-7,49.0,43.0,32.8,47.0,40.1,29.9,97,90,67,30.11,29.80,4,2,8,0.89
2013-2-8,39.0,31.7,27.4,31.2,28.1,25.5,93,87,73,30.29,30.11,4,1,6,0.00
2013-2-9,47.4,35.5,27.1,37.0,30.7,25.3,95,84,58,30.21,29.74,8,4,16,0.02
2013-2-10,54.9,45.8,36.1,48.3,36.7,25.2,96,73,49,29.83,29.42,14,7,22,0.08
2013-2-11,48.4,38.1,30.4,30.2,26.1,22.4,79,63,41,30.09,29.83,6,2,9,0.00
2013-2-12,40.3,33.5,27.0,29.2,25.4,21.1,86,73,54,30.11,29.90,2,1,3,0.00
2013-2-13,54.7,40.1,27.3,35.8,28.9,23.7,87,67,35,29.91,29.75,7,3,11,0.00
2013-2-14,51.1,42.0,32.2,34.1,29.6,25.0,81,63,46,30.08,29.76,5,2,7,0.00
2013-2-15,38.7,30.7,22.3,28.9,17.8,11.5,85,60,34,30.30,30.08,3,1,6,0.00
2013-2-16,34.4,27.7,17.0,24.0,20.5,13.8,91,75,58,30.27,30.05,5,1,9,0.00
2013-2-17,57.5,42.4,26.2,35.0,28.3,20.6,80,59,42,30.05,29.64,8,4,13,0.00
2013-2-18,53.5,42.8,27.7,49.0,34.3,18.4,93,73,51,29.99,29.46,8,4,13,0.14
2013-2-19,36.0,26.3,19.0,18.4,12.3,4.4,79,57,29,30.31,29.99,4,2,13,0.00
2013-2-20,25.2,20.2,14.6,15.4,10.6,5.1,74,66,59,30.36,30.17,5,2,9,0.00
2013-2-21,27.2,23.6,20.4,25.7,20.3,14.8,94,87,70,30.18,29.72,9,5,16,0.00
2013-2-22,28.9,24.1,15.8,26.4,20.5,13.1,95,86,71,30.04,29.74,5,2,7,0.00
2013-2-23,31.2,19.2,9.7,21.7,14.4,7.1,91,82,63,30.04,29.93,3,0,5,0.08
2013-2-24,45.0,32.4,20.0,28.4,23.3,17.5,91,71,48,30.01,29.87,6,2,9,0.01
2013-2-25,37.4,33.2,28.0,31.7,27.3,23.6,95,79,68,29.92,29.56,9,4,14,0.05
2013-2-26,32.3,32.3,32.3,31.0,31.0,31.0,95,95,95,29.57,29.56,3,3,5,0.00
2013-5-21,72.7,72.7,72.7,58.9,58.9,58.9,62,62,62,29.60,29.60,2,2,2,0.00
2013-5-27,78.6,72.8,62.3,72.3,67.8,61.1,97,85,76,29.79,29.59,9,3,11,2.34
2013-5-28,76.9,72.1,69.1,72.0,68.2,65.9,95,88,78,29.70,29.55,6,2,10,0.42
2013-5-29,82.3,74.2,65.0,71.2,66.8,61.7,93,78,64,29.74,29.55,7,4,14,0.10
2013-5-30,70.6,64.2,62.1,66.6,61.6,58.9,96,92,78,29.67,29.52,9,4,17,1.51
2013-5-31,78.4,68.0,59.5,73.1,66.0,58.0,97,93,82,29.72,29.55,6,1,10,2.98
2013-6-1,73.6,65.3,55.8,63.2,59.3,53.7,97,82,56,29.87,29.58,3,1,9,0.00
2013-6-2,66.3,58.1,49.5,56.4,53.0,47.3,95,83,67,29.99,29.86,1,0,3,0.00
2013-6-3,72.2,60.5,47.4,58.5,52.8,45.5,93,77,58,30.00,29.83,4,2,8,0.00
2013-6-4,72.5,64.7,59.0,66.1,60.9,55.8,95,88,79,29.93,29.80,6,2,10,0.13
2013-6-5,70.3,63.2,59.3,67.5,61.8,57.9,97,95,88,29.88,29.80,2,0,4,0.38
2013-6-6,75.3,66.6,59.2,62.6,60.4,56.6,98,82,57,29.86,29.81,2,0,4,0.00
2013-8-17,77.9,75.9,73.1,61.4,58.9,56.0,63,56,48,30.09,30.03,3,2,5,0.00
2013-9-1,80.7,80.6,80.5,71.8,71.7,71.6,75,74,74,29.74,29.74,0,0,0,0.00
2013-9-2,71.5,66.5,63.3,63.1,61.2,59.7,89,83,74,29.91,29.87,0,0,0,0.00
2013-9-3,86.3,71.5,59.9,61.7,58.6,54.4,91,66,40,30.01,29.91,3,1,6,0.00
2013-9-4,87.7,74.6,60.8,63.2,59.6,56.1,88,62,35,30.07,29.96,3,0,5,0.00
2013-9-5,89.3,75.9,62.5,65.7,61.3,58.0,88,63,36,30.11,30.00,3,1,7,0.00
2013-9-6,90.7,77.5,62.9,66.9,62.6,58.9,92,63,36,30.04,29.89,4,1,7,0.00
2013-9-7,96.2,81.4,66.7,71.3,66.6,59.7,85,63,44,29.91,29.78,4,1,7,0.00
2013-9-8,100.6,86.4,73.9,72.7,69.9,67.3,81,60,37,29.80,29.70,4,1,7,0.00
2013-9-9,96.8,84.2,71.5,70.2,66.5,61.3,85,59,33,29.84,29.75,5,1,8,0.00
2013-9-10,95.9,82.7,70.1,69.8,66.3,64.3,83,60,39,29.96,29.84,4,1,10,0.00
2013-9-11,95.8,82.2,69.1,68.8,65.3,63.3,83,59,35,30.02,29.91,3,1,8,0.00
2013-9-12,87.1,76.2,68.1,70.1,65.5,48.4,91,71,49,30.03,29.93,3,1,4,0.00
2013-9-13,76.6,66.8,57.4,53.6,49.8,48.0,76,56,38,30.08,29.96,3,1,6,0.00
2013-9-14,79.3,65.7,51.4,53.7,49.9,45.4,80,59,34,30.03,29.88,4,1,7,0.00
2013-9-15,86.1,71.9,62.5,68.1,59.7,53.5,94,67,47,30.02,29.86,3,2,8,0.05
2013-9-16,64.4,60.4,58.5,61.5,58.2,56.3,96,93,88,30.16,30.02,5,2,9,0.10
2013-9-17,69.7,64.4,60.6,67.7,63.2,59.2,98,96,91,30.11,29.91,4,1,6,0.43
2013-9-18,89.8,75.6,66.0,73.9,69.4,64.9,98,83,57,29.91,29.74,7,3,11,0.02
2013-9-19,92.7,79.2,67.0,72.2,68.8,65.8,96,73,46,29.81,29.65,6,2,12,0.52
2013-9-20,70.6,62.9,52.9,66.6,56.6,50.3,97,81,56,29.92,29.76,2,0,5,0.00
2013-9-21,73.6,60.6,47.2,53.1,49.5,45.8,96,70,43,29.97,29.84,2,0,4,0.01
2013-9-22,76.3,64.1,53.8,54.6,50.6,47.2,86,64,41,29.92,29.79,4,1,8,0.00
2013-9-23,76.8,64.5,52.9,56.3,53.5,50.3,92,70,41,29.87,29.72,6,2,11,0.00
2013-9-24,74.8,64.6,57.5,60.7,57.9,55.8,96,79,60,29.76,29.69,5,2,6,0.00
2013-9-25,75.6,64.2,56.0,64.9,60.4,55.1,98,88,66,29.82,29.74,3,1,4,0.00
2013-9-26,83.8,70.5,58.8,64.4,61.6,57.7,97,76,48,29.86,29.76,7,3,11,0.01
2013-9-27,86.3,74.3,64.1,66.3,63.6,61.6,92,71,50,29.90,29.78,6,3,12,0.00
2013-9-28,71.3,64.4,53.9,67.4,60.8,53.1,97,88,77,29.99,29.75,6,2,9,0.38
2013-9-29,72.2,60.2,48.5,61.4,52.4,47.6,98,78,44,30.03,29.88,3,0,6,0.01
2013-9-30,76.1,63.6,50.4,64.5,58.0,48.7,95,83,62,29.88,29.75,5,2,12,0.00
2013-10-1,83.6,71.1,61.8,69.2,64.2,60.4,97,80,53,29.89,29.76,3,1,7,0.00
2013-10-2,85.2,71.8,62.7,71.9,66.5,61.3,96,84,59,29.92,29.78,4,1,8,0.00
2013-10-3,87.0,74.7,67.0,72.1,68.5,65.4,97,82,58,29.80,29.65,6,3,12,0.00
2013-10-4,88.0,77.3,68.5,72.0,68.2,65.6,93,75,53,29.78,29.66,7,4,13,0.00
2013-10-5,74.3,55.3,45.3,65.1,45.9,38.7,94,72,45,29.92,29.77,3,1,9,0.15
2013-10-6,62.0,50.4,40.0,46.3,41.4,35.8,87,72,52,29.93,29.78,4,1,8,0.00
2013-10-7,73.1,56.6,40.2,47.8,44.5,38.9,95,68,39,30.08,29.92,2,0,4,0.00
2013-10-8,76.3,62.4,48.9,51.6,48.2,44.3,86,62,36,30.05,29.95,6,2,11,0.00
2013-10-9,76.1,62.0,48.7,51.9,49.0,45.1,93,66,35,30.04,29.94,4,2,9,0.00
2013-10-10,78.3,63.7,50.4,57.9,52.9,48.4,94,70,44,30.00,29.80,5,2,11,0.00
2013-10-11,76.2,67.1,57.5,64.8,60.3,53.4,92,79,67,29.82,29.69,7,4,13,0.00
2013-10-12,71.1,60.0,48.5,63.0,48.8,38.6,95,69,40,30.16,29.76,2,0,5,0.11
2013-10-13,71.8,59.1,48.6,42.4,38.0,35.6,68,48,28,30.33,30.16,4,2,8,0.00
2013-10-14,68.4,58.0,50.1,59.1,46.4,36.3,93,67,42,30.22,29.84,8,4,13,0.05
2013-10-15,63.2,55.8,41.4,58.6,48.8,37.6,96,79,52,29.99,29.79,6,1,9,0.10
2013-10-16,60.4,49.2,37.0,46.5,41.9,35.2,95,77,53,30.04,29.92,2,0,4,0.02
2013-10-17,66.3,52.9,42.3,46.6,44.1,40.7,96,75,44,29.93,29.83,4,1,6,0.01
2013-10-18,52.3,40.8,34.9,42.5,33.5,-99.9,95,82,51,30.06,29.93,2,-28,4,0.20
2013-10-19,61.1,45.3,33.9,43.9,37.9,32.6,96,78,39,30.02,29.85,4,1,8,0.00
2013-10-20,69.9,54.9,43.4,45.4,41.9,38.7,84,64,39,29.86,29.74,5,2,11,0.00
2013-10-21,56.2,48.5,41.7,45.5,36.7,32.5,84,65,42,30.04,29.84,2,0,6,0.00
2013-10-22,64.0,49.0,35.3,47.8,39.0,32.0,88,69,48,30.03,29.83,3,1,7,0.00
2013-10-23,51.7,41.1,30.0,37.3,33.5,28.4,95,76,49,30.12,30.00,3,0,4,0.00
2013-10-24,52.1,41.8,33.3,36.5,30.4,26.0,94,67,39,30.39,30.09,2,0,5,0.00
2013-10-25,56.5,44.6,32.8,32.7,27.2,25.2,75,53,30,30.43,30.11,5,1,10,0.00
2013-10-26,64.0,48.8,38.9,45.6,35.5,28.9,85,62,36,30.11,30.02,2,1,5,0.00
2013-10-27,63.5,49.2,35.4,33.3,30.4,28.0,77,51,28,30.09,29.90,4,1,6,0.00
2013-10-28,64.9,51.5,39.3,54.3,43.2,30.3,93,74,52,30.09,29.94,4,1,6,0.00
2013-10-29,64.4,56.6,49.6,63.8,55.4,46.8,98,96,89,30.08,29.88,4,2,6,0.98
2013-10-30,67.1,64.8,62.2,66.2,64.0,61.0,98,97,94,29.91,29.64,6,3,10,0.65
2013-10-31,62.5,52.6,45.5,61.6,51.5,44.5,98,96,91,29.64,29.44,4,1,6,0.70
2013-11-1,61.5,48.1,40.5,46.3,41.9,38.9,97,81,49,29.90,29.57,3,1,5,0.01
2013-11-2,56.0,46.8,41.4,42.4,38.1,32.7,90,73,49,30.13,29.90,3,1,6,0.00
2013-11-3,59.4,49.1,35.9,41.1,37.2,31.9,86,65,46,30.13,29.90,9,5,13,0.00
2013-11-4,60.1,55.7,50.5,52.2,46.8,41.1,85,72,64,30.05,29.87,8,4,13,0.00
2013-11-5,60.1,56.0,51.9,59.2,54.9,50.5,97,96,85,30.05,29.78,8,4,12,1.64
2013-11-6,59.4,40.4,32.5,58.5,37.6,30.9,97,90,75,30.28,29.78,3,1,6,0.30
2013-11-7,56.3,37.5,31.1,40.6,27.5,-99.9,96,79,46,30.34,30.28,4,-46,6,0.01
2013-11-14,44.0,41.4,40.0,27.8,26.7,26.0,58,56,51,29.95,29.94,1,0,3,0.00
2013-11-15,57.9,46.8,41.9,46.5,32.7,-99.9,87,66,57,29.94,29.71,8,-48,13,0.00
2013-11-16,67.1,59.8,50.2,60.6,52.6,-99.9,93,82,76,29.72,29.38,14,-18,22,0.09
2013-11-17,67.1,59.8,43.4,62.6,42.4,20.0,88,57,18,29.98,29.26,14,4,20,0.00
2013-11-18,57.5,46.3,34.5,38.8,31.6,25.3,91,60,33,30.23,29.98,3,1,5,0.00
2013-11-19,60.5,47.6,35.4,34.1,29.4,26.6,73,52,29,30.21,29.98,10,4,18,0.00
2013-11-20,45.9,45.2,44.8,41.6,40.7,39.4,85,84,81,29.91,29.86,3,2,3,0.39
2013-11-21,48.8,43.1,30.6,47.2,40.7,29.5,96,91,77,30.33,29.92,4,1,5,0.42
2013-11-22,32.3,28.0,23.2,29.5,25.9,21.5,96,92,87,30.58,30.32,2,1,4,0.00
2013-11-23,29.9,22.9,13.3,21.9,15.6,8.3,93,74,51,30.75,30.56,2,0,4,0.00
2013-11-24,27.0,19.5,9.2,15.7,11.2,6.3,90,71,54,30.74,30.34,3,2,6,0.00
2013-11-25,36.7,31.2,27.0,23.9,20.3,15.4,80,64,55,30.34,30.14,4,1,6,0.00
2013-11-26,38.7,28.7,19.3,29.7,21.3,11.4,90,74,50,30.36,30.11,2,1,4,0.00
2013-11-27,31.7,22.4,13.6,13.9,11.6,8.5,82,64,46,30.41,30.24,2,1,5,0.00
2013-11-28,44.2,35.1,27.2,26.5,22.9,19.4,73,62,48,30.46,30.28,2,0,5,0.00
2013-11-29,49.8,36.4,23.3,32.2,25.7,18.2,81,66,50,30.47,30.24,5,3,9,0.00
2013-11-30,54.0,43.1,32.7,40.6,34.3,26.6,88,71,60,30.24,30.03,4,2,8,0.00
2013-12-1,55.4,44.6,34.8,41.1,37.6,32.7,95,78,57,30.07,29.83,3,1,6,0.00
2013-12-2,47.3,41.8,33.7,44.3,39.9,32.4,97,93,82,29.83,29.57,4,1,7,0.00
2013-12-3,57.6,47.1,39.7,50.9,44.8,38.7,98,92,76,29.57,29.48,5,1,8,0.01
2013-12-4,50.3,39.5,23.9,49.5,37.3,18.0,97,92,78,29.95,29.44,4,2,6,0.01
2013-12-5,23.8,20.2,17.8,17.9,12.8,9.9,81,73,63,30.25,29.96,3,1,8,0.00
2013-12-7,20.7,17.2,8.6,7.1,5.8,3.2,79,61,51,30.72,30.38,5,2,8,0.00
2013-12-8,23.9,20.7,18.0,21.9,15.8,6.7,94,82,59,30.39,29.98,5,2,9,0.00
2013-12-9,20.4,14.1,9.3,18.2,9.0,3.8,93,80,65,30.38,30.14,2,0,4,0.00
2013-12-10,36.7,21.7,8.8,20.9,12.8,3.8,80,69,50,30.35,30.21,6,2,7,0.00
2013-12-11,29.0,20.3,10.4,20.9,12.0,2.4,90,71,46,30.62,30.23,3,1,5,0.00
2013-12-12,45.2,27.3,9.4,24.8,14.9,2.5,81,62,35,30.60,30.17,7,2,10,0.00
2013-12-13,34.7,31.4,24.8,33.7,29.1,20.9,96,91,79,30.17,29.84,5,2,8,0.48
2013-12-14,32.8,27.2,18.9,31.9,25.3,16.5,97,92,87,30.20,29.83,2,1,5,0.02
2013-12-15,45.9,32.8,17.9,34.4,26.5,16.0,93,79,61,30.19,29.94,5,2,8,0.00
2013-12-16,56.8,39.9,29.7,37.7,30.7,25.5,85,71,46,30.10,29.92,4,1,6,0.00
2013-12-17,47.2,36.0,27.4,33.6,27.0,22.8,91,71,48,30.25,30.10,3,1,5,0.00
2013-12-18,59.9,44.8,30.2,40.7,32.6,22.9,80,63,48,30.20,29.77,6,3,13,0.00
2013-12-19,56.8,53.1,48.3,51.1,47.1,38.4,89,80,68,29.77,29.59,6,3,8,0.00
2013-12-20,54.6,30.3,22.7,51.1,28.0,19.7,95,91,87,29.89,29.58,3,1,5,0.03
2013-12-21,29.3,25.8,22.7,28.0,24.1,20.5,95,93,90,29.85,29.55,5,1,7,0.00
2013-12-22,27.7,22.2,12.1,26.5,20.1,9.7,95,91,88,30.36,29.67,1,0,3,0.00
2013-12-23,15.6,9.7,3.6,10.8,6.3,0.4,92,86,79,30.63,30.35,1,0,2,0.00
2013-12-24,27.7,15.9,1.8,26.2,12.5,-1.4,94,87,77,30.61,30.23,6,2,6,0.00
2013-12-25,37.3,30.8,27.6,32.4,27.9,25.1,95,89,80,30.32,30.24,5,1,6,0.00
2013-12-26,45.4,33.9,24.3,34.5,29.1,22.5,93,83,64,30.31,30.16,5,2,15,0.27
2013-12-27,50.4,37.9,27.5,39.4,33.0,25.9,95,83,64,30.31,30.16,3,2,6,0.05
2013-12-28,52.6,41.6,32.8,36.4,32.5,28.8,86,71,49,30.16,29.85,5,2,9,0.00
2013-12-29,38.8,19.3,8.4,32.2,12.0,1.3,86,73,59,30.31,29.85,3,1,6,0.00
2013-12-30,26.8,17.3,6.4,15.9,7.6,0.6,79,66,51,30.32,30.18,5,2,8,0.00
2013-12-31,48.8,31.9,17.7,31.1,22.3,14.6,89,69,49,30.32,30.05,6,2,9,0.00
2014-1-1,36.3,24.1,11.2,25.6,18.5,7.8,88,80,63,30.23,29.99,3,1,6,0.00
2014-1-2,18.1,7.9,0.3,7.7,0.9,-4.0,86,74,51,30.50,30.24,2,0,4,0.00